TimeCET,TemperatureF,Dew PointF,Humidity,Sea Level PressureIn,VisibilityMPH,Wind Direction,Wind SpeedMPH,Gust SpeedMPH,PrecipitationIn,Events,Conditions,WindDirDegrees,DateUTC
12:00 AM,48.2,48.2,100,29.80,5.0,ENE,3.5,-,N/A,Rain,Rain,60,2012-11-26 23:00:00
12:30 AM,48.2,48.2,100,29.80,5.0,Variable,2.3,-,N/A,Rain,Light Rain,0,2012-11-26 23:30:00
1:00 AM,49,47,91,29.80,,NNE,4.6,,,,Unknown Precipitation,20,2012-11-27 00:00:00
1:00 AM,48.2,48.2,100,29.80,5.0,NNE,3.5,-,N/A,Rain,Light Rain,20,2012-11-27 00:00:00
1:30 AM,48.2,48.2,100,29.77,5.0,NE,6.9,-,N/A,Rain,Light Rain,50,2012-11-27 00:30:00
2:00 AM,48.2,48.2,100,29.80,5.0,Variable,1.2,-,N/A,Rain,Light Rain,0,2012-11-27 01:00:00
2:30 AM,46.4,46.4,100,29.77,5.0,ENE,6.9,-,N/A,,Light Drizzle,60,2012-11-27 01:30:00
3:00 AM,46.4,46.4,100,29.77,5.0,Calm,Calm,-,N/A,,Mostly Cloudy,0,2012-11-27 02:00:00
3:30 AM,46.4,46.4,100,29.74,5.0,Variable,2.3,-,N/A,,Mostly Cloudy,0,2012-11-27 02:30:00
4:30 AM,46.4,46.4,100,29.74,5.0,Variable,1.2,-,N/A,,Mostly Cloudy,0,2012-11-27 03:30:00
5:00 AM,46.4,46.4,100,29.74,5.0,Variable,2.3,-,N/A,Rain,Light Rain,0,2012-11-27 04:00:00
5:30 AM,46.4,46.4,100,29.74,5.0,Variable,1.2,-,N/A,Rain,Light Rain,0,2012-11-27 04:30:00
6:00 AM,46.4,46.4,100,29.74,5.0,Variable,2.3,-,N/A,,Mostly Cloudy,0,2012-11-27 05:00:00
6:30 AM,46.4,46.4,100,29.74,5.0,Variable,2.3,-,N/A,,Mostly Cloudy,0,2012-11-27 05:30:00
7:00 AM,48,45,85,29.71,,NNE,2.3,,,,,20,2012-11-27 06:00:00
7:00 AM,46.4,46.4,100,29.71,6.2,NE,3.5,-,N/A,,Mostly Cloudy,40,2012-11-27 06:00:00
7:30 AM,46.4,46.4,100,29.71,6.2,NW,2.3,-,N/A,,Mostly Cloudy,320,2012-11-27 06:30:00
8:00 AM,46.4,46.4,100,29.71,6.2,Calm,Calm,-,N/A,,Mostly Cloudy,0,2012-11-27 07:00:00
8:30 AM,46.4,46.4,100,29.71,6.2,Variable,2.3,-,N/A,,Mostly Cloudy,0,2012-11-27 07:30:00
9:00 AM,46.4,46.4,100,29.71,6.2,North,2.3,-,N/A,,Mostly Cloudy,10,2012-11-27 08:00:00
9:30 AM,46.4,46.4,100,29.71,6.2,Variable,2.3,-,N/A,,Drizzle,0,2012-11-27 08:30:00
10:00 AM,46.4,46.4,100,29.71,6.2,NE,4.6,-,N/A,,Mostly Cloudy,40,2012-11-27 09:00:00
10:30 AM,48.2,46.4,93,29.71,6.2,NNE,9.2,-,N/A,,Mostly Cloudy,30,2012-11-27 09:30:00
11:00 AM,48.2,44.6,87,29.71,6.2,North,5.8,-,N/A,,Light Drizzle,360,2012-11-27 10:00:00
11:30 AM,48.2,46.4,93,29.71,6.2,NNE,9.2,-,N/A,,Light Drizzle,30,2012-11-27 10:30:00
12:00 PM,48.2,46.4,93,29.68,6.2,North,3.5,-,N/A,,Light Drizzle,360,2012-11-27 11:00:00
12:30 PM,48.2,46.4,93,29.65,6.2,North,5.8,-,N/A,,Mostly Cloudy,10,2012-11-27 11:30:00
1:00 PM,50,45,75,29.64,16,NNE,9.2,,,,Mostly Cloudy,20,2012-11-27 12:00:00
1:00 PM,48.2,46.4,93,29.65,6.2,NNE,8.1,-,N/A,,Scattered Clouds,20,2012-11-27 12:00:00
1:30 PM,48.2,42.8,82,29.62,6.2,NNE,12.7,-,N/A,,Scattered Clouds,20,2012-11-27 12:30:00
2:00 PM,48.2,42.8,82,29.62,6.2,NNE,11.5,-,N/A,,Scattered Clouds,20,2012-11-27 13:00:00
2:30 PM,50.0,42.8,76,29.59,6.2,NNE,11.5,-,N/A,,Scattered Clouds,20,2012-11-27 13:30:00
3:00 PM,50.0,41.0,71,29.59,6.2,NNE,11.5,-,N/A,,Mostly Cloudy,20,2012-11-27 14:00:00
3:30 PM,48.2,41.0,76,29.59,6.2,NNE,10.4,-,N/A,,Mostly Cloudy,30,2012-11-27 14:30:00
4:00 PM,50.0,41.0,71,29.56,6.2,NNE,10.4,-,N/A,,Mostly Cloudy,30,2012-11-27 15:00:00
4:30 PM,48.2,41.0,76,29.56,6.2,NNE,9.2,-,N/A,,Mostly Cloudy,30,2012-11-27 15:30:00
5:00 PM,48.2,39.2,71,29.56,6.2,North,5.8,-,N/A,,Mostly Cloudy,10,2012-11-27 16:00:00
5:30 PM,48.2,41.0,76,29.56,6.2,NNE,6.9,-,N/A,,Mostly Cloudy,20,2012-11-27 16:30:00
6:00 PM,48.2,41.0,76,29.56,6.2,North,6.9,-,N/A,,Mostly Cloudy,10,2012-11-27 17:00:00
6:30 PM,48.2,41.0,76,29.56,6.2,NNE,8.1,-,N/A,,Mostly Cloudy,30,2012-11-27 17:30:00
7:00 PM,49,41,64,29.56,19,North,6.9,,,,Overcast,10,2012-11-27 18:00:00
7:00 PM,48.2,39.2,71,29.56,6.2,North,5.8,-,N/A,,Mostly Cloudy,10,2012-11-27 18:00:00
7:30 PM,48.2,41.0,76,29.56,6.2,NNE,5.8,-,N/A,,Mostly Cloudy,30,2012-11-27 18:30:00
8:00 PM,46.4,41.0,81,29.56,6.2,Variable,1.2,-,N/A,Rain,Rain,0,2012-11-27 19:00:00
8:30 PM,44.6,44.6,100,29.56,5.0,Calm,Calm,-,N/A,Rain,Rain,0,2012-11-27 19:30:00
9:00 PM,44.6,44.6,100,29.56,5.0,Variable,2.3,-,N/A,Rain,Rain,0,2012-11-27 20:00:00
9:30 PM,44.6,44.6,100,29.56,5.6,Calm,Calm,-,N/A,Rain,Rain,0,2012-11-27 20:30:00
10:00 PM,44.6,44.6,100,29.56,5.6,NW,3.5,-,N/A,Rain,Rain,310,2012-11-27 21:00:00
11:00 PM,42.8,42.8,100,29.56,6.2,WNW,5.8,-,N/A,Rain,Light Rain,290,2012-11-27 22:00:00
11:30 PM,42.8,42.8,100,29.53,6.2,WNW,4.6,-,N/A,Rain,Rain,290,2012-11-27 22:30:00